| time (UTC) | temp C | wind direction | speed KPH | gust KPH | rain 1hr cm | rain 24hr cm | rain mn cm | humidity % | barometer mb |
| 20260508130809 | 7 | 40 | 0.0 | 1.6 | 0.00 | 0.00 | 0.00 | 67 | 1016.3 |
| 20260508125912 | 7 | 59 | 0.0 | 3.2 | 0.00 | 0.00 | 0.00 | 68 | 1015.9 |
| 20260508125014 | 7 | 59 | 1.6 | 3.2 | 0.00 | 0.00 | 0.00 | 67 | 1016.1 |
| 20260508124119 | 7 | 32 | 0.0 | 0.0 | 0.00 | 0.00 | 0.00 | 66 | 1015.7 |
| 20260508123259 | 7 | 33 | 1.6 | 3.2 | 0.00 | 0.00 | 0.00 | 65 | 1015.7 |
| 20260508122339 | 7 | 357 | 0.0 | 1.6 | 0.00 | 0.00 | 0.00 | 64 | 1015.8 |
| 20260508121532 | 7 | 51 | 0.0 | 1.6 | 0.00 | 0.00 | 0.00 | 64 | 1015.5 |
| 20260508120614 | 7 | 51 | 0.0 | 1.6 | 0.00 | 0.00 | 0.00 | 62 | 1015.4 |
| 20260508115812 | 7 | 39 | 0.0 | 4.8 | 0.00 | 0.00 | 0.00 | 63 | 1015.6 |
| 20260508114909 | 7 | 95 | 4.8 | 8.0 | 0.00 | 0.00 | 0.00 | 63 | 1015.3 |
| 20260508113959 | 7 | 44 | 1.6 | 0.0 | 0.00 | 0.00 | 0.00 | 63 | 1015.3 |
| 20260508113049 | 7 | 57 | 1.6 | 3.2 | 0.00 | 0.00 | 0.00 | 63 | 1015.3 |
| 20260508112112 | 7 | 38 | 3.2 | 4.8 | 0.00 | 0.00 | 0.00 | 63 | 1015.3 |
| 20260508111229 | 7 | 30 | 0.0 | 0.0 | 0.00 | 0.00 | 0.00 | 62 | 1015.4 |
| 20260508110404 | 7 | 21 | 0.0 | 0.0 | 0.00 | 0.00 | 0.00 | 62 | 1015.2 |
| 20260508105602 | 8 | 23 | 1.6 | 1.6 | 0.00 | 0.00 | 0.00 | 61 | 1015.2 |
| 20260508104759 | 8 | 347 | 0.0 | 1.6 | 0.00 | 0.00 | 0.00 | 60 | 1015.2 |
| 20260508103812 | 8 | 26 | 1.6 | 1.6 | 0.00 | 0.00 | 0.00 | 60 | 1015.0 |
| 20260508102852 | 8 | 344 | 0.0 | 1.6 | 0.00 | 0.00 | 0.00 | 59 | 1014.9 |
| 20260508102052 | 8 | 21 | 0.0 | 1.6 | 0.00 | 0.00 | 0.00 | 59 | 1015.1 |
| 20260508101252 | 8 | 1 | 0.0 | 1.6 | 0.00 | 0.00 | 0.00 | 58 | 1014.9 |
| 20260508100424 | 9 | 301 | 0.0 | 3.2 | 0.00 | 0.00 | 0.00 | 57 | 1015.1 |
| 20260508095544 | 9 | 288 | 0.0 | 3.2 | 0.00 | 0.00 | 0.00 | 57 | 1014.7 |
| 20260508094604 | 9 | 307 | 1.6 | 3.2 | 0.00 | 0.00 | 0.00 | 56 | 1014.8 |
| 20260508093714 | 9 | 47 | 0.0 | 1.6 | 0.00 | 0.00 | 0.00 | 56 | 1015.0 |
| 20260508092859 | 9 | 38 | 0.0 | 1.6 | 0.00 | 0.00 | 0.00 | 56 | 1014.6 |
| 20260508091914 | 9 | 322 | 0.0 | 1.6 | 0.00 | 0.00 | 0.00 | 55 | 1014.9 |
| 20260508091054 | 9 | 39 | 0.0 | 1.6 | 0.00 | 0.00 | 0.00 | 55 | 1014.8 |
| 20260508090208 | 9 | 36 | 0.0 | 0.0 | 0.00 | 0.00 | 0.00 | 55 | 1014.9 |
| 20260508085209 | 9 | 40 | 0.0 | 4.8 | 0.00 | 0.00 | 0.00 | 54 | 1015.0 |
| 20260508084332 | 10 | 44 | 3.2 | 4.8 | 0.00 | 0.00 | 0.00 | 55 | 1014.9 |
| 20260508083514 | 10 | 358 | 0.0 | 3.2 | 0.00 | 0.00 | 0.00 | 54 | 1015.2 |
| 20260508082634 | 10 | 9 | 0.0 | 3.2 | 0.00 | 0.00 | 0.00 | 54 | 1014.8 |
| 20260508081809 | 10 | 57 | 1.6 | 3.2 | 0.00 | 0.00 | 0.00 | 53 | 1015.0 |
| 20260508080959 | 10 | 44 | 0.0 | 0.0 | 0.00 | 0.00 | 0.00 | 52 | 1015.1 |
| 20260508080002 | 10 | 38 | 1.6 | 3.2 | 0.00 | 0.00 | 0.00 | 51 | 1014.9 |
| 20260508075129 | 10 | 49 | 0.0 | 1.6 | 0.00 | 0.00 | 0.00 | 51 | 1015.3 |
| 20260508074139 | 11 | 34 | 0.0 | 1.6 | 0.00 | 0.00 | 0.00 | 49 | 1015.0 |
| 20260508073253 | 11 | 71 | 0.0 | 0.0 | 0.00 | 0.00 | 0.00 | 48 | 1015.1 |
| 20260508072349 | 11 | 71 | 0.0 | 0.0 | 0.00 | 0.00 | 0.00 | 47 | 1015.0 |
| 20260508071409 | 12 | 71 | 0.0 | 0.0 | 0.00 | 0.00 | 0.00 | 46 | 1014.9 |
| 20260508070434 | 12 | 71 | 0.0 | 0.0 | 0.00 | 0.00 | 0.00 | 45 | 1015.0 |
| 20260508065609 | 12 | 71 | 0.0 | 0.0 | 0.00 | 0.00 | 0.00 | 44 | 1014.8 |
| 20260508064724 | 12 | 100 | 1.6 | 1.6 | 0.00 | 0.00 | 0.00 | 43 | 1015.0 |
| 20260508063849 | 13 | 65 | 0.0 | 1.6 | 0.00 | 0.00 | 0.00 | 42 | 1014.9 |
| 20260508062904 | 13 | 106 | 0.0 | 3.2 | 0.00 | 0.00 | 0.00 | 41 | 1014.7 |
| 20260508061952 | 13 | 111 | 1.6 | 3.2 | 0.00 | 0.00 | 0.00 | 40 | 1014.6 |
| 20260508061059 | 13 | 95 | 3.2 | 8.0 | 0.00 | 0.00 | 0.00 | 41 | 1014.6 |
| 20260508060152 | 13 | 39 | 1.6 | 3.2 | 0.00 | 0.00 | 0.00 | 42 | 1014.5 |
| 20260508055339 | 14 | 359 | 0.0 | 3.2 | 0.00 | 0.00 | 0.00 | 41 | 1014.5 |
| 20260508054454 | 14 | 195 | 0.0 | 0.0 | 0.00 | 0.00 | 0.00 | 39 | 1014.6 |
| 20260508053512 | 14 | 195 | 0.0 | 0.0 | 0.00 | 0.00 | 0.00 | 39 | 1014.8 |
| 20260508052704 | 14 | 195 | 0.0 | 1.6 | 0.00 | 0.00 | 0.00 | 39 | 1014.7 |
| 20260508051714 | 14 | 66 | 0.0 | 0.0 | 0.00 | 0.00 | 0.00 | 39 | 1014.5 |
| 20260508050852 | 14 | 66 | 0.0 | 0.0 | 0.00 | 0.00 | 0.00 | 40 | 1014.9 |
| 20260508045854 | 14 | 66 | 0.0 | 0.0 | 0.00 | 0.00 | 0.00 | 41 | 1014.6 |
| 20260508044939 | 15 | 66 | 0.0 | 0.0 | 0.00 | 0.00 | 0.00 | 40 | 1014.8 |
| 20260508043939 | 15 | 66 | 0.0 | 3.2 | 0.00 | 0.00 | 0.00 | 39 | 1014.6 |
| 20260508043034 | 15 | 96 | 0.0 | 3.2 | 0.00 | 0.00 | 0.00 | 38 | 1014.7 |
| 20260508042129 | 16 | 64 | 0.0 | 0.0 | 0.00 | 0.00 | 0.00 | 37 | 1014.7 |
| 20260508041219 | 16 | 64 | 0.0 | 0.0 | 0.00 | 0.00 | 0.00 | 36 | 1014.7 |
| 20260508040244 | 16 | 64 | 0.0 | 0.0 | 0.00 | 0.00 | 0.00 | 34 | 1014.7 |
| 20260508035404 | 17 | 64 | 0.0 | 0.0 | 0.00 | 0.00 | 0.00 | 34 | 1014.7 |
| 20260508034549 | 17 | 64 | 0.0 | 0.0 | 0.00 | 0.00 | 0.00 | 33 | 1014.5 |
| 20260508033729 | 17 | 64 | 0.0 | 0.0 | 0.00 | 0.00 | 0.00 | 31 | 1014.5 |
| 20260508032904 | 17 | 64 | 0.0 | 0.0 | 0.00 | 0.00 | 0.00 | 30 | 1014.3 |
| 20260508032014 | 18 | 61 | 0.0 | 1.6 | 0.00 | 0.00 | 0.00 | 29 | 1014.3 |
| 20260508031049 | 18 | 49 | 0.0 | 0.0 | 0.00 | 0.00 | 0.00 | 30 | 1014.5 |
| 20260508030109 | 18 | 49 | 0.0 | 0.0 | 0.00 | 0.00 | 0.00 | 29 | 1014.2 |
| 20260508025220 | 18 | 49 | 0.0 | 0.0 | 0.00 | 0.00 | 0.00 | 28 | 1014.1 |
| 20260508024258 | 19 | 56 | 0.0 | 1.6 | 0.00 | 0.00 | 0.00 | 27 | 1014.0 |
| 20260508023404 | 20 | 284 | 0.0 | 0.0 | 0.00 | 0.00 | 0.00 | 27 | 1014.1 |
| 20260508022502 | 20 | 284 | 0.0 | 0.0 | 0.00 | 0.00 | 0.00 | 26 | 1013.9 |
| 20260508021549 | 21 | 284 | 0.0 | 0.0 | 0.00 | 0.00 | 0.00 | 25 | 1013.7 |
| 20260508020739 | 21 | 284 | 0.0 | 0.0 | 0.00 | 0.00 | 0.00 | 23 | 1013.6 |
| 20260508015824 | 22 | 284 | 0.0 | 4.8 | 0.00 | 0.00 | 0.00 | 23 | 1013.7 |
| 20260508014832 | 22 | 331 | 0.0 | 0.0 | 0.00 | 0.00 | 0.00 | 21 | 1013.4 |
| 20260508013844 | 23 | 331 | 1.6 | 9.7 | 0.00 | 0.00 | 0.00 | 20 | 1013.5 |
| 20260508012944 | 24 | 353 | 1.6 | 14.5 | 0.00 | 0.00 | 0.00 | 19 | 1013.5 |
| 20260508012019 | 24 | 355 | 3.2 | 4.8 | 0.00 | 0.00 | 0.00 | 19 | 1013.6 |
| 20260508011204 | 24 | 343 | 3.2 | 11.3 | 0.00 | 0.00 | 0.00 | 19 | 1013.5 |
| 20260508010239 | 24 | 351 | 3.2 | 11.3 | 0.00 | 0.00 | 0.00 | 19 | 1013.9 |
| 20260508005249 | 23 | 309 | 4.8 | 11.3 | 0.00 | 0.00 | 0.00 | 19 | 1013.6 |
| 20260508004352 | 23 | 327 | 4.8 | 11.3 | 0.00 | 0.00 | 0.00 | 20 | 1013.6 |
| 20260508003449 | 24 | 298 | 4.8 | 11.3 | 0.00 | 0.00 | 0.00 | 20 | 1013.7 |
| 20260508002619 | 24 | 248 | 6.4 | 11.3 | 0.00 | 0.00 | 0.00 | 20 | 1014.1 |
| 20260508001659 | 23 | 316 | 6.4 | 12.9 | 0.00 | 0.00 | 0.00 | 20 | 1014.1 |
| 20260508000704 | 23 | 272 | 9.7 | 16.1 | 0.00 | 0.00 | 0.00 | 20 | 1014.1 |
| 20260507235709 | 23 | 308 | 4.8 | 11.3 | 0.00 | 0.00 | 0.00 | 20 | 1014.0 |
| 20260507234744 | 24 | 272 | 1.6 | 17.7 | 0.00 | 0.00 | 0.00 | 20 | 1013.8 |
| 20260507233932 | 25 | 296 | 11.3 | 16.1 | 0.00 | 0.00 | 0.00 | 19 | 1013.9 |
| 20260507233054 | 25 | 359 | 1.6 | 14.5 | 0.00 | 0.00 | 0.00 | 19 | 1014.0 |
| 20260507232145 | 24 | 286 | 4.8 | 17.7 | 0.00 | 0.00 | 0.00 | 19 | 1014.0 |
| 20260507231248 | 24 | 294 | 6.4 | 12.9 | 0.00 | 0.00 | 0.00 | 20 | 1014.3 |
| 20260507230329 | 23 | 322 | 4.8 | 17.7 | 0.00 | 0.00 | 0.00 | 20 | 1014.3 |
| 20260507225439 | 23 | 324 | 4.8 | 11.3 | 0.00 | 0.00 | 0.00 | 20 | 1014.5 |
| 20260507224619 | 23 | 35 | 1.6 | 14.5 | 0.00 | 0.00 | 0.00 | 20 | 1014.6 |
| 20260507223724 | 23 | 303 | 3.2 | 14.5 | 0.00 | 0.00 | 0.00 | 21 | 1014.9 |
| 20260507222754 | 22 | 319 | 8.0 | 17.7 | 0.00 | 0.00 | 0.00 | 21 | 1014.9 |
| 20260507221929 | 22 | 24 | 3.2 | 12.9 | 0.00 | 0.00 | 0.00 | 21 | 1015.0 |
| 20260507221122 | 22 | 334 | 4.8 | 16.1 | 0.00 | 0.00 | 0.00 | 21 | 1015.2 |
| 20260507220204 | 22 | 303 | 8.0 | 17.7 | 0.00 | 0.00 | 0.00 | 21 | 1015.4 |
| 20260507215344 | 22 | 308 | 1.6 | 14.5 | 0.00 | 0.00 | 0.00 | 22 | 1015.6 |
| 20260507214449 | 22 | 329 | 4.8 | 20.9 | 0.00 | 0.00 | 0.00 | 22 | 1015.6 |
| 20260507213519 | 22 | 323 | 8.0 | 16.1 | 0.00 | 0.00 | 0.00 | 22 | 1016.1 |
| 20260507212639 | 22 | 292 | 4.8 | 14.5 | 0.00 | 0.00 | 0.00 | 21 | 1016.1 |
| 20260507211649 | 21 | 260 | 1.6 | 14.5 | 0.00 | 0.00 | 0.00 | 23 | 1016.2 |
| 20260507210834 | 21 | 322 | 8.0 | 14.5 | 0.00 | 0.00 | 0.00 | 22 | 1016.7 |
| 20260507205947 | 21 | 340 | 3.2 | 16.1 | 0.00 | 0.00 | 0.00 | 21 | 1016.7 |
| 20260507205011 | 21 | 327 | 8.0 | 17.7 | 0.00 | 0.00 | 0.00 | 21 | 1017.0 |
| 20260507204059 | 21 | 315 | 6.4 | 17.7 | 0.00 | 0.00 | 0.00 | 21 | 1017.3 |
| 20260507203152 | 21 | 336 | 4.8 | 11.3 | 0.00 | 0.00 | 0.00 | 22 | 1017.0 |
| 20260507202319 | 20 | 276 | 4.8 | 9.7 | 0.00 | 0.00 | 0.00 | 21 | 1017.5 |
| 20260507201514 | 20 | 236 | 3.2 | 11.3 | 0.00 | 0.00 | 0.00 | 22 | 1017.8 |
| 20260507200524 | 20 | 351 | 6.4 | 24.1 | 0.00 | 0.00 | 0.00 | 22 | 1017.9 |
| 20260507195539 | 20 | 331 | 3.2 | 14.5 | 0.00 | 0.00 | 0.00 | 21 | 1018.1 |
| 20260507194544 | 19 | 45 | 3.2 | 17.7 | 0.00 | 0.00 | 0.00 | 21 | 1018.3 |
| 20260507193729 | 19 | 300 | 8.0 | 17.7 | 0.00 | 0.00 | 0.00 | 23 | 1018.4 |
| 20260507192809 | 18 | 6 | 3.2 | 14.5 | 0.00 | 0.00 | 0.00 | 22 | 1018.4 |
| 20260507191809 | 18 | 111 | 4.8 | 14.5 | 0.00 | 0.00 | 0.00 | 23 | 1018.4 |
| 20260507190829 | 18 | 40 | 3.2 | 8.0 | 0.00 | 0.00 | 0.00 | 22 | 1018.9 |
| 20260507185915 | 18 | 298 | 4.8 | 14.5 | 0.00 | 0.00 | 0.00 | 22 | 1019.2 |
| 20260507185039 | 18 | 287 | 6.4 | 14.5 | 0.00 | 0.00 | 0.00 | 22 | 1019.4 |
| 20260507184141 | 18 | 16 | 3.2 | 12.9 | 0.00 | 0.00 | 0.00 | 23 | 1019.7 |
| 20260507183152 | 18 | 335 | 6.4 | 14.5 | 0.00 | 0.00 | 0.00 | 22 | 1019.6 |
| 20260507182232 | 18 | 38 | 3.2 | 14.5 | 0.00 | 0.00 | 0.00 | 22 | 1019.7 |
| 20260507181350 | 18 | 121 | 3.2 | 9.7 | 0.00 | 0.00 | 0.00 | 23 | 1020.2 |
| 20260507180552 | 19 | 139 | 1.6 | 9.7 | 0.00 | 0.00 | 0.00 | 22 | 1020.3 |
| 20260507175752 | 19 | 287 | 3.2 | 9.7 | 0.00 | 0.00 | 0.00 | 21 | 1020.1 |
| 20260507174919 | 18 | 121 | 1.6 | 9.7 | 0.00 | 0.00 | 0.00 | 22 | 1020.5 |
| 20260507174039 | 18 | 157 | 3.2 | 9.7 | 0.00 | 0.00 | 0.00 | 23 | 1020.6 |
| 20260507173109 | 17 | 168 | 3.2 | 12.9 | 0.00 | 0.00 | 0.00 | 24 | 1020.5 |
| 20260507172214 | 17 | 175 | 8.0 | 14.5 | 0.00 | 0.00 | 0.00 | 23 | 1020.9 |
| 20260507171328 | 17 | 139 | 6.4 | 12.9 | 0.00 | 0.00 | 0.00 | 23 | 1020.8 |
| 20260507170452 | 17 | 112 | 4.8 | 16.1 | 0.00 | 0.00 | 0.00 | 22 | 1020.7 |
| 20260507165622 | 17 | 28 | 1.6 | 9.7 | 0.00 | 0.00 | 0.00 | 23 | 1021.0 |
| 20260507164652 | 17 | 97 | 4.8 | 9.7 | 0.00 | 0.00 | 0.00 | 25 | 1020.9 |
| 20260507163719 | 16 | 105 | 4.8 | 11.3 | 0.00 | 0.00 | 0.00 | 27 | 1021.4 |
| 20260507162726 | 16 | 159 | 1.6 | 9.7 | 0.00 | 0.00 | 0.00 | 27 | 1021.2 |
| 20260507161759 | 16 | 208 | 1.6 | 12.9 | 0.00 | 0.00 | 0.00 | 27 | 1021.6 |
| 20260507160904 | 15 | 112 | 3.2 | 12.9 | 0.00 | 0.00 | 0.00 | 29 | 1021.9 |
| 20260507160019 | 14 | 119 | 4.8 | 14.5 | 0.00 | 0.00 | 0.00 | 29 | 1021.8 |
| 20260507155129 | 13 | 99 | 6.4 | 20.9 | 0.00 | 0.00 | 0.00 | 30 | 1022.0 |
| 20260507154209 | 12 | 166 | 6.4 | 20.9 | 0.00 | 0.00 | 0.00 | 32 | 1022.0 |
| 20260507153329 | 11 | 131 | 8.0 | 20.9 | 0.00 | 0.00 | 0.00 | 34 | 1021.9 |
| 20260507152339 | 11 | 145 | 8.0 | 25.7 | 0.00 | 0.00 | 0.00 | 35 | 1022.4 |
| 20260507151519 | 11 | 121 | 8.0 | 16.1 | 0.00 | 0.00 | 0.00 | 35 | 1022.4 |
| 20260507150546 | 11 | 133 | 8.0 | 16.1 | 0.00 | 0.00 | 0.00 | 36 | 1022.9 |
| 20260507145602 | 10 | 139 | 8.0 | 20.9 | 0.00 | 0.00 | 0.00 | 37 | 1022.9 |
| 20260507144658 | 10 | 113 | 6.4 | 14.5 | 0.00 | 0.00 | 0.00 | 38 | 1023.0 |
| 20260507143844 | 9 | 123 | 6.4 | 14.5 | 0.00 | 0.00 | 0.00 | 39 | 1023.2 |
| 20260507143039 | 8 | 108 | 3.2 | 16.1 | 0.00 | 0.00 | 0.00 | 39 | 1023.1 |
| 20260507142052 | 8 | 122 | 6.4 | 20.9 | 0.00 | 0.00 | 0.00 | 38 | 1023.1 |
| 20260507141129 | 8 | 157 | 4.8 | 12.9 | 0.00 | 0.00 | 0.00 | 39 | 1023.5 |
| 20260507140159 | 8 | 150 | 4.8 | 17.7 | 0.00 | 0.00 | 0.00 | 41 | 1023.1 |
| 20260507135232 | 7 | 120 | 9.7 | 16.1 | 0.00 | 0.00 | 0.00 | 42 | 1023.0 |
| 20260507134349 | 7 | 117 | 8.0 | 16.1 | 0.00 | 0.00 | 0.00 | 44 | 1023.3 |
| 20260507133458 | 6 | 160 | 4.8 | 14.5 | 0.00 | 0.00 | 0.00 | 45 | 1022.8 |
| 20260507132519 | 6 | 123 | 6.4 | 17.7 | 0.00 | 0.00 | 0.00 | 44 | 1022.9 |
| 20260507131706 | 6 | 115 | 4.8 | 17.7 | 0.00 | 0.00 | 0.00 | 43 | 1022.8 |